Погода в Ясеновском

Украина / Луганская область     48°09′37″N   39°13′03″E
темп.,
°C
ветер,
м/с
пор.,
м/с
влажн.,
%
обл.,
%
осадки,
мм/ч
давл.,
гПа
погр.,
м
24 июля, сб
сб2400:00+17ссз34580 0.0 101261
03:00+16ссз22600 0.0 101219
06:00+16ссз22630 0.0 101352
09:00+22с34480 0.0 1013610
12:00+25с34370 0.0 10131966
15:00+27с233110 0.0 10122558
18:00+27с333391 0.0 10132435
21:00+23с3844100 0.0 1015238
25 июля, вс
вс2500:00+21св245294 0.0 101683
03:00+20ссв255996 0.0 1017135
06:00+19св256791 0.0 1018167
09:00+23св455545 0.0 1018554
12:00+28св33381 0.0 10192210
15:00+28св333251 0.0 10182545
18:00+28св443466 0.0 10181991
21:00+23ссв4114427 0.0 1020343
26 июля, пн
пн2600:00+19ссв38550 0.0 1021142
03:00+17св35600 0.0 102177
06:00+17ссв376426 0.0 1021147
09:00+24св56442 0.0 1021447
12:00+29св443318 0.0 10201527
15:00+30св333097 0.0 10192756
18:00+27юв124499 0.0 1019110
21:00+24ссв224616 0.0 101928
27 июля, вт
вт2700:00+20ссв345042 0.0 102080
03:00+18ссв236599 0.7 102069
06:00+18ссв236593 0.3 102063
09:00+23ссв345369 0.4 1020259
12:00+27всв333934 0.0 1020848
15:00+30в223061 0.0 10192305
18:00+28зсз124081 0.0 1019289
21:00+21юв115923 1.1 102011
28 июля, ср
ср2800:00+20з22575 0.0 101911
03:00+19юз11620 0.0 101911
06:00+20вюв11610 0.0 101911
09:00+26с01456 0.0 1019600
12:00+30в123312 0.0 10172825
15:00+30вюв122887 0.0 10162743
18:00+26ю584466 0.0 1016283
21:00+23ююз34491 0.0 101656